Weather History for Kirksville, MO

Change the Weather History Date:

Saturday, March 23, 2013

  Actual Average Record
Temperature  
Mean Temperature 39 °F 44 °F  
Max Temperature 46 °F 54 °F 82 °F (1928)
Min Temperature 31 °F 33 °F 7 °F (1965)
Degree Days  
Heating Degree Days 26 21  
Month to date heating degree days 768 596  
Since 1 July heating degree days 5148 5129  
Cooling Degree Days 0 0  
Month to date cooling degree days 0 0  
Year to date cooling degree days 0 0  
Moisture  
Dew Point 27 °F    
Average Humidity 71    
Maximum Humidity 100    
Minimum Humidity 41    
Precipitation  
Precipitation 0.17 in 0.08 in 1.37 in (1946)
Month to date precipitation 2.83 1.93  
Year to date precipitation 8.28 4.73  
Sea Level Pressure  
Sea Level Pressure 30.02 in    
Wind  
Wind Speed 10 mph (NE)    
Max Wind Speed 20 mph    
Max Gust Speed 25 mph    
Visibility 7 miles    
Events Rain , Snow    
T = Trace of Precipitation, MM = Missing Value Source: NWS Daily Summary

Daily Weather History Graph

Daily Weather History Graph

Search for Another Location

Airport:

Trip Planner

Search our weather history database for the weather conditions in past years. The results will help you decide how hot, cold, wet, or windy it might be!

Date:

Astronomy

Mar. 23, 2013 Rise Set
Actual Time 7:08 AM CDT 7:25 PM CDT
Civil Twilight 6:41 AM CDT 7:52 PM CDT
Nautical Twilight 6:09 AM CDT 8:24 PM CDT
Astronomical Twilight 5:37 AM CDT 8:57 PM CDT
Moon 3:52 PM CDT (3/23) 4:45 AM CDT (3/23)
Length of Visible Light 13h 11m
Length of Day
12h 17m
Waxing Gibbous, 85% of the Moon is Illuminated
Mar 23
Waxing Gibbous
Mar 27
Full
Apr 2
Last Quarter
Apr 10
New
Apr 18
First Quarter

Hourly Weather History & Observations

Time (CDT) Temp. Windchill Dew Point Humidity Pressure Visibility Wind Dir Wind Speed Gust Speed Precip Events Conditions
12:55 AM 32.0 °F 28.7 °F 24.1 °F 73% 30.07 in 10.0 mi North 3.5 mph - N/A   Overcast
1:55 AM 32.0 °F - 25.0 °F 75% 30.06 in 10.0 mi Calm Calm - N/A   Overcast
2:55 AM 30.9 °F 26.2 °F 24.1 °F 76% 30.07 in 10.0 mi North 4.6 mph - N/A   Overcast
3:55 AM 32.0 °F - 21.9 °F 66% 30.05 in 10.0 mi Calm Calm - N/A   Overcast
4:55 AM 32.0 °F 27.5 °F 21.9 °F 66% 30.06 in 10.0 mi North 4.6 mph - N/A   Overcast
5:55 AM 30.2 °F 24.3 °F 23.0 °F 75% 30.02 in 10.0 mi NNE 5.8 mph - N/A   Overcast
6:55 AM 30.9 °F 25.2 °F 24.1 °F 76% 30.08 in 10.0 mi NNE 5.8 mph - N/A   Overcast
7:55 AM 32.0 °F 24.2 °F 24.8 °F 75% 30.06 in 9.0 mi NE 9.2 mph - N/A   Overcast
8:55 AM 35.1 °F 27.4 °F 24.1 °F 64% 30.08 in 10.0 mi NE 10.4 mph - N/A   Overcast
9:55 AM 37.0 °F 31.0 °F 24.1 °F 59% 30.09 in 10.0 mi ENE 8.1 mph - N/A   Overcast
10:55 AM 37.9 °F 31.5 °F 24.1 °F 57% 30.10 in 10.0 mi NE 9.2 mph - N/A   Overcast
11:55 AM 39.9 °F 32.1 °F 23.0 °F 51% 30.09 in 10.0 mi ENE 13.8 mph - N/A   Overcast
12:55 PM 42.1 °F 36.1 °F 24.1 °F 49% 30.09 in 10.0 mi East 10.4 mph - N/A   Overcast
1:55 PM 44.1 °F 39.0 °F 23.0 °F 43% 30.05 in 10.0 mi ENE 9.2 mph - N/A   Overcast
2:55 PM 45.0 °F 38.5 °F 23.0 °F 42% 30.00 in 10.0 mi ENE 13.8 mph 19.6 mph N/A   Overcast
3:55 PM 45.0 °F 39.3 °F 25.0 °F 46% 29.96 in 10.0 mi East 11.5 mph 18.4 mph N/A   Scattered Clouds
4:55 PM 45.0 °F 39.3 °F 25.0 °F 46% 29.96 in 10.0 mi NE 11.5 mph - N/A   Mostly Cloudy
5:55 PM 44.1 °F 38.6 °F 25.0 °F 47% 29.96 in 10.0 mi NE 10.4 mph - N/A   Overcast
6:55 PM 42.1 °F 35.7 °F 26.1 °F 53% 29.96 in 10.0 mi NNE 11.5 mph - N/A   Overcast
7:20 PM 39.2 °F 31.2 °F 30.2 °F 70% 29.94 in 8.0 mi NNE 13.8 mph 25.3 mph 0.00 in Rain Light Rain
7:55 PM 37.0 °F 27.4 °F 32.0 °F 82% 29.98 in 8.0 mi NE 17.3 mph 21.9 mph 0.01 in Rain Light Rain
8:44 PM 35.6 °F 26.6 °F 30.2 °F 81% 29.96 in 2.5 mi NE 13.8 mph - 0.03 in Snow Light Snow
8:55 PM 34.0 °F 25.5 °F 32.0 °F 92% 29.99 in 2.0 mi NE 11.5 mph 19.6 mph 0.04 in Snow Light Snow
9:02 PM 33.8 °F 24.8 °F 30.2 °F 87% 29.96 in 1.5 mi NE 12.7 mph - 0.01 in Snow Light Snow
9:11 PM 33.8 °F 25.3 °F 32.0 °F 93% 29.96 in 1.2 mi NE 11.5 mph - 0.02 in Snow Light Snow
9:27 PM 33.8 °F 25.3 °F 32.0 °F 93% 29.96 in 1.2 mi NNE 11.5 mph - 0.03 in Snow Light Snow
9:53 PM 32.0 °F 23.6 °F 32.0 °F 100% 29.97 in 0.8 mi NNE 10.4 mph - 0.05 in Snow Light Snow
9:55 PM 32.0 °F 23.0 °F 32.0 °F 100% 30.00 in 1.0 mi NNE 11.5 mph - 0.05 in Snow Light Snow
10:55 PM 32.0 °F 21.6 °F 30.9 °F 96% 30.00 in 1.2 mi NNE 15.0 mph - 0.02 in Snow Light Snow
11:55 PM 32.0 °F 22.1 °F 30.9 °F 96% 29.99 in 1.2 mi NNE 13.8 mph - 0.02 in Snow Light Snow